Location: Ambrosina
(19.9365°S, 43.9833°W)
Time: 00:28:20
(UTC+00:00)

Meteor 2-3 Rocket - Pass Details

Date: 11 May 2021
Orbit: 841 x 886 km, 81.2° (Epoch: 20 June)

Event Time Altitude Azimuth Distance (km) Brightness Sun altitude
Rises 21:15:25 0° 19° (NNE) 3,378 6.8 -11.3°
Reaches altitude 10° 21:18:06 10° 29° (NNE) 2,450 6.0 -11.9°
Maximum altitude 21:22:51 30° 88° (E) 1,482 4.4 -13.0°
Drops below altitude 10° 21:27:39 10° 147° (SSE) 2,480 5.7 -14.1°
Enters shadow 21:27:48 - 148° (SSE) 2,535 5.8 -14.1°
